Regional Weather Roundup
Issued by NWS Northern Indiana

Home | Current Version | Previous Version | Text Only | Print | Product List | Glossary On
Versions: 1 2 3 4 5 6 7 8 9 10 11 12 13 14 15 16 17 18 19 20 21 22 23 24 25 26 27 28 29 30 31 32 33 34 35 36 37 38 39 40 41 42 43 44 45 46 47 48 49 50
000
ASUS43 KIWX 012210
RWRIWX

KIWX WEATHER ROUNDUP
NATIONAL WEATHER SERVICE NORTHERN INDIANA
600 PM EDT FRI AUG 01 2014

NOTE: "FAIR" INDICATES FEW OR NO CLOUDS BELOW 12,000 FEET WITH NO
SIGNIFICANT WEATHER AND/OR OBSTRUCTIONS TO VISIBILITY.

* THESE STATIONS ARE NOT UNDER NWS QUALITY CONTROL. THEY ALSO MAY NOT
  REPORT WEATHER SUCH AS PRECIPITATION OR FOG.

INZ001>027-012300-
NORTHERN INDIANA

CITY           SKY/WX    TMP DP  RH WIND       PRES   REMARKS
GARY*          PTSUNNY   77  57  50 SE9       30.07F
VALPARAISO     PTSUNNY   65  62  90 E3        30.07F
MICHIGAN CITY* PTSUNNY   73  54  49 SW6       30.07F
LAPORTE*       PTSUNNY   66  60  79 SE7       30.08F
KNOX*          PTSUNNY   71  60  70 CALM      30.08S
SOUTH BEND     CLOUDY    71  59  65 W9        30.08F
ELKHART*       SUNNY     72  59  64 CALM      30.08F
GOSHEN         PTSUNNY   74  60  61 CALM      30.07F
MONTICELLO*    CLOUDY    71  59  66 W5        30.08S
LOGANSPORT*    CLOUDY    72  55  56 N6        30.09F
ROCHESTER*     PTSUNNY   77  57  50 E6        30.09F
WARSAW*        PTSUNNY   73  61  64 NW3       30.09F
ANGOLA*        SUNNY     77  61  57 SW3       30.09S
FORT WAYNE     MOSUNNY   78  58  49 N14       30.08F
HUNTINGTON*    MOSUNNY   73  58  57 N5        30.07F
PERU/GRISSOM   CLOUDY    75  62  63 N14       30.08S
MARION*        MOSUNNY   77  61  56 CALM      30.08F

$$
INZ028>050-012300-
CENTRAL INDIANA

CITY           SKY/WX    TMP DP  RH WIND       PRES   REMARKS
LAFAYETTE      CLOUDY    68  62  81 N5        30.07F
KOKOMO*        PTSUNNY   79  63  57 W3        30.08S
MUNCIE*        LGT RAIN  72  59  63 E13       30.08S
INDIANAPOLIS   CLOUDY    72  60  66 NW10      30.07R THUNDER

$$
MIZ043>046-050>051-056>058-064>065-071>073-077>080-012300-
SOUTHWEST LOWER MICHIGAN

CITY           SKY/WX    TMP DP  RH WIND       PRES   REMARKS
BATTLE CREEK   CLOUDY    74  60  61 W10       30.09S
BENTON HARBOR  PTSUNNY   77  59  53 SW8       30.07F
COLDWATER*     CLOUDY    76  63  64 W3        30.08F
HILLSDALE*     PTSUNNY   76  61  58 W6        30.09F
HOLLAND        MOSUNNY   80  61  52 SW9       30.09S
GRAND RAPIDS   MOSUNNY   83  58  42 W13       30.07S
KALAMAZOO      LGT RAIN  68  58  70 N9        30.09F
STURGIS*       CLOUDY    72  61  68 NW6       30.08F
THREE RIVERS*  FAIR      74  62  67 SW5       30.09S

$$
OHZ001>008-015>018-024>025-012300-
NORTHWEST OHIO

CITY           SKY/WX    TMP DP  RH WIND       PRES   REMARKS
WAUSEON*       RAIN      68  61  77 NW12G22   30.08S
DEFIANCE       PTSUNNY   82  59  45 NW6       30.07F
FINDLAY        PTSUNNY   83  58  42 VRB3      30.06F
TOLEDO EXPRESS MOSUNNY   80  59  48 N5        30.07S
TOLEDO METCALF MOSUNNY   79  57  46 NE5       30.08F
LIMA           MOSUNNY   82  57  42 VRB3      30.07F

$$
&&


USA.gov is the U.S. government's official web portal to all federal, state and local government web resources and services.